User: anonymous   Login
Location: Griffin Ranch
(33.6186°N, 110.6622°W)
Time: 18:32:02
(UTC-07:00)
Language:

Cosmos 1812 - Orbit

View from above orbital plane
View from above orbital plane
View from above satellite
View from above satellite

Ground track
Ground track

The orbit data is extracted from the following two-line orbital elements,

1 17295U 87003A   17326.56925028 +.00000653 +00000-0 +33619-4 0  9998
2 17295 082.5134 349.1720 0002182 325.3646 034.7444 15.14726507682704
Epoch (UTC): 22 November 2017 13:39:43
Eccentricity: 0.0002182
inclination: 82.5134°
perigee height: 520 km
apogee height: 523 km
right ascension of ascending node: 349.1720°
argument of perigee: 325.3646°
revolutions per day: 15.14726507
mean anomaly at epoch: 34.7444°
orbit number at epoch: 68270

The dashed part of the orbit path shows where the satellite is in the earth's shadow,  

DLR